Date,TemperatureHighF,TemperatureAvgF,TemperatureLowF,DewpointHighF,DewpointAvgF,DewpointLowF,HumidityHigh,HumidityAvg,HumidityLow,PressureMaxIn,PressureMinIn,WindSpeedMaxMPH,WindSpeedAvgMPH,GustSpeedMaxMPH,PrecipitationSumIn
2013-1-1,20,12,5,13,7,1,87,78,62,30.33,30.19,9,3,12,0.00
2013-1-2,31,19,5,24,14,2,88,81,73,30.27,30.10,14,7,17,0.00
2013-1-3,29,24,11,27,19,7,90,84,72,30.37,30.15,19,8,26,0.00
2013-1-4,34,22,10,27,18,7,92,84,73,30.35,30.23,16,8,22,0.00
2013-1-5,36,29,19,34,27,16,94,90,82,30.26,29.97,19,9,23,0.00
2013-1-6,32,22,15,27,18,12,91,86,77,30.35,29.98,20,8,24,0.00
2013-1-7,39,29,15,31,24,12,90,83,66,30.34,30.09,20,10,23,0.00
2013-1-8,43,35,28,36,30,24,89,84,73,30.15,30.00,14,9,20,0.00
2013-1-9,45,36,28,36,31,25,91,82,61,30.50,30.03,13,6,17,0.00
2013-1-10,40,34,26,38,31,24,99,90,73,30.49,29.81,17,5,21,0.95
2013-1-11,53,46,37,51,45,36,100,96,87,29.81,29.60,18,9,23,0.16
2013-1-12,51,35,21,48,31,19,93,84,76,30.04,29.64,19,9,25,0.00
2013-1-13,22,17,10,19,12,7,92,81,74,30.33,29.94,17,8,20,0.00
2013-1-14,28,15,7,15,9,4,89,78,51,30.52,30.33,8,2,12,0.00
2013-1-15,30,18,8,19,12,6,90,81,59,30.48,30.17,8,2,12,0.00
2013-1-16,37,27,14,34,22,10,91,80,67,30.17,29.89,17,8,22,0.00
2013-1-17,37,28,20,34,20,13,89,76,51,30.45,30.12,11,4,15,0.00
2013-1-18,47,35,22,36,29,18,87,77,66,30.44,29.92,25,13,32,0.00
2013-1-19,50,40,22,40,32,11,85,74,56,30.12,29.77,26,13,36,0.00
2013-1-20,22,16,11,12,9,5,84,73,60,30.38,30.12,21,9,26,0.00
2013-1-21,14,8,4,8,0,-6,81,69,50,30.39,30.25,20,12,26,0.00
2013-1-22,14,8,0,3,-1,-6,80,66,54,30.48,30.38,13,7,18,0.00
2013-1-23,30,19,12,16,8,3,79,64,52,30.46,30.15,15,8,23,0.00
2013-1-24,22,14,5,11,3,-4,70,61,49,30.70,30.33,13,6,17,0.00
2013-1-25,37,25,17,23,16,9,89,68,51,30.33,30.02,18,8,22,0.00
2013-1-26,31,21,8,18,12,4,86,69,48,30.44,30.27,10,4,12,0.00
2013-1-27,42,32,27,41,28,17,99,85,67,30.35,29.83,18,9,22,0.43
2013-1-28,54,43,40,54,43,39,100,98,96,29.95,29.69,17,6,22,0.04
2013-1-29,62,52,38,60,51,37,100,97,91,29.68,29.41,21,9,26,1.16
2013-1-30,38,28,16,37,27,11,99,93,81,29.79,29.27,21,11,28,0.42
2013-1-31,18,10,2,14,5,-4,86,80,74,30.34,29.79,22,15,28,0.00
2013-2-1,20,8,-1,17,2,-6,87,76,69,30.47,30.17,17,9,21,0.00
2013-2-2,26,20,13,23,16,9,93,84,71,30.17,30.05,14,6,19,0.00
2013-2-3,26,21,16,20,16,14,94,84,68,30.14,29.98,18,6,26,0.00
2013-2-4,27,23,12,24,19,10,91,85,78,30.01,29.84,13,5,16,0.00
2013-2-5,36,28,12,32,24,10,92,86,77,30.13,29.85,14,7,20,0.00
2013-2-6,44,33,20,38,29,18,93,86,76,30.21,30.03,13,5,16,0.01
2013-2-7,37,35,32,36,34,29,97,95,89,30.07,29.88,12,4,15,1.00
2013-2-8,32,28,26,29,24,22,90,86,81,30.40,30.08,12,5,15,0.00
2013-2-9,36,30,26,32,27,23,94,89,82,30.40,30.01,19,8,22,0.00
2013-2-10,48,40,34,47,38,32,99,92,70,30.03,29.39,26,15,34,0.28
2013-2-11,38,32,28,33,26,23,83,78,73,30.11,29.54,29,17,39,0.00
2013-2-12,37,30,26,29,25,22,92,82,67,30.16,29.84,15,6,20,0.00
2013-2-13,43,35,27,36,30,24,92,84,68,29.91,29.70,11,5,15,0.00
2013-2-14,43,37,30,34,32,28,91,82,63,30.04,29.67,19,10,29,0.00
2013-2-15,33,26,19,28,17,12,90,70,49,30.26,30.04,13,8,21,0.00
2013-2-16,27,19,13,17,12,8,88,74,62,30.27,30.17,15,6,22,0.00
2013-2-17,37,25,11,26,18,8,87,76,59,30.23,29.88,17,8,20,0.00
2013-2-18,54,37,18,45,32,16,97,82,64,29.88,29.48,22,12,25,0.28
2013-2-19,21,14,8,16,9,2,90,80,70,30.33,29.77,23,16,28,0.00
2013-2-20,22,13,4,15,8,0,91,79,69,30.48,30.33,9,4,13,0.00
2013-2-21,29,21,10,26,18,7,95,89,80,30.42,29.92,18,6,23,0.00
2013-2-22,33,28,22,30,25,19,96,90,81,29.97,29.79,17,8,21,0.00
2013-2-23,31,24,14,23,19,12,90,82,71,30.01,29.95,14,7,16,0.00
2013-2-24,37,22,9,28,18,7,95,84,65,30.15,30.01,6,2,7,0.07
2013-2-25,39,29,15,32,26,13,96,87,73,30.16,29.91,16,4,20,0.02
2013-2-26,35,32,30,31,30,29,98,92,82,29.91,29.55,25,13,33,0.01
2013-2-27,32,31,29,32,30,28,98,97,96,29.83,29.63,10,6,14,0.10
2013-2-28,34,32,28,33,31,27,97,93,87,30.11,29.83,12,5,16,0.00
2013-3-1,30,27,24,28,22,18,91,82,73,30.27,30.11,14,7,18,0.00
2013-3-2,30,21,10,20,15,7,91,76,58,30.29,30.22,11,3,14,0.00
2013-3-3,36,21,6,22,13,3,93,73,44,30.23,30.09,8,2,9,0.00
2013-3-4,33,29,22,28,24,16,87,81,76,30.11,29.92,21,9,25,0.00
2013-3-5,32,30,27,31,28,24,97,93,86,30.14,29.87,18,8,21,0.00
2013-3-6,30,27,22,25,23,19,90,85,77,30.37,30.14,13,6,17,0.00
2013-3-7,36,27,16,27,22,14,95,83,66,30.44,30.36,10,3,12,0.04
2013-3-8,38,29,16,32,25,14,95,87,76,30.45,30.23,16,7,21,0.03
2013-3-9,40,36,34,38,34,31,95,91,87,30.24,29.78,18,9,21,0.31
2013-3-10,42,40,36,42,39,35,99,97,90,29.79,29.56,17,3,20,1.16
2013-3-11,37,34,30,37,32,25,99,95,83,29.89,29.59,17,8,22,0.08
2013-3-12,36,32,23,31,28,19,92,83,79,30.17,29.89,13,9,18,0.00
2013-3-13,36,29,22,30,22,18,87,75,54,30.38,29.99,13,8,18,0.00
2013-3-14,45,33,23,36,28,20,92,82,66,30.38,30.06,14,5,20,0.00
2013-3-15,45,37,31,40,34,29,97,89,73,30.07,29.70,12,3,15,0.00
2013-3-16,38,34,31,34,30,27,98,88,72,30.15,29.70,14,5,16,0.00
2013-3-17,36,32,26,30,26,19,86,79,71,30.21,29.94,16,8,20,0.00
2013-3-18,37,30,22,34,27,15,95,87,71,29.94,29.68,25,10,32,0.10
2013-3-19,35,25,17,23,17,10,77,69,53,30.19,29.90,21,13,26,0.00
2013-3-20,27,21,14,21,12,6,80,68,54,30.23,30.13,21,13,28,0.00
2013-3-21,34,23,11,19,13,7,88,67,45,30.14,30.04,11,3,14,0.00
2013-3-22,42,30,16,26,21,15,95,72,44,30.11,30.02,6,1,12,0.00
2013-3-23,43,34,26,29,25,22,91,70,49,30.13,30.00,16,4,20,0.00
2013-3-24,33,31,29,31,29,27,97,92,78,30.03,29.73,16,8,20,0.00
2013-3-25,37,32,29,31,26,22,97,79,72,30.16,29.83,14,7,20,0.01
2013-3-26,39,34,29,30,28,25,87,77,65,30.31,30.16,12,5,18,0.00
2013-3-27,46,37,28,30,27,22,92,69,45,30.37,30.30,8,3,12,0.00
2013-3-28,53,42,25,38,32,23,93,69,45,30.38,30.27,6,1,7,0.00
2013-3-29,58,44,30,39,34,29,96,71,42,30.32,30.20,5,1,10,0.00
2013-3-30,58,46,34,45,39,30,92,77,53,30.21,29.85,22,7,27,0.00
2013-3-31,56,46,35,44,38,26,97,76,50,29.97,29.79,19,9,25,0.00
2013-4-1,41,34,27,26,23,19,84,66,45,30.25,29.97,19,7,24,0.00
2013-4-2,45,34,22,25,21,16,89,63,34,30.35,30.25,14,5,20,0.00
2013-4-3,50,35,22,24,21,17,88,59,28,30.47,30.30,12,3,15,0.00
2013-4-4,60,44,27,38,29,22,82,59,34,30.30,29.99,10,4,12,0.00
2013-4-5,45,38,34,36,31,28,87,76,58,30.22,30.05,13,4,17,0.00
2013-4-6,71,62,50,52,44,36,86,53,33,29.81,29.57,28,16,37,0.02
2013-4-7,65,52,38,46,42,36,94,71,44,29.93,29.69,16,5,22,0.00
2013-4-8,73,59,47,58,53,41,99,80,52,29.85,29.50,26,8,35,1.08
2013-4-9,78,57,43,65,52,41,95,87,62,29.89,29.72,21,9,26,0.00
2013-4-10,43,41,37,42,40,36,98,95,91,30.14,29.66,34,11,41,1.39
2013-4-11,48,42,37,46,41,34,98,95,86,29.71,29.58,16,7,22,0.13
2013-4-12,41,38,35,38,34,33,94,86,77,29.91,29.59,18,10,23,0.00
2013-4-13,50,41,34,40,34,29,90,75,56,30.00,29.90,16,8,21,0.00
2013-4-14,76,57,41,56,46,36,91,69,40,29.95,29.50,29,13,35,0.20
2013-4-15,62,52,42,56,47,38,98,85,52,30.00,29.63,15,5,18,0.38
2013-4-16,51,45,35,43,37,32,90,76,60,30.21,29.97,10,4,12,0.00
2013-4-17,56,45,41,56,42,37,100,91,74,30.24,29.67,25,9,32,2.38
2013-4-18,63,51,38,62,50,33,100,95,83,29.76,29.37,24,12,32,2.30
2013-4-19,39,36,35,33,31,29,89,80,73,30.01,29.56,23,15,31,0.00
2013-4-20,48,39,30,34,30,26,93,71,43,30.38,30.01,12,4,16,0.00
2013-4-21,59,50,35,45,40,30,85,70,57,30.39,30.23,22,10,28,0.00
2013-4-22,69,56,42,50,42,37,88,62,36,30.25,29.97,18,8,23,0.03
2013-4-23,53,43,39,50,40,34,97,91,80,30.03,29.91,13,6,18,0.37
2013-4-24,52,43,36,36,33,27,86,69,38,30.11,30.00,12,7,20,0.00
2013-4-25,55,45,36,39,32,24,90,63,32,30.29,30.09,18,8,24,0.01
2013-4-26,68,54,40,50,43,34,84,68,47,30.28,30.19,21,11,26,0.00
2013-4-27,66,55,42,50,47,41,97,76,51,30.25,29.96,15,5,21,0.00
2013-4-28,72,60,47,55,50,46,98,72,43,29.96,29.78,10,2,14,0.00
2013-4-29,80,65,48,62,55,47,95,74,50,29.86,29.64,20,11,26,0.00
2013-4-30,88,74,62,63,57,51,91,61,30,29.85,29.66,22,12,30,0.00
2013-5-1,86,74,62,58,54,48,78,54,27,30.08,29.85,14,8,18,0.00
2013-5-2,62,51,42,50,44,39,91,76,59,30.19,30.06,17,8,21,0.04
2013-5-3,53,44,38,52,43,37,98,96,91,30.15,29.86,17,6,22,1.70
2013-5-4,70,60,51,61,56,50,97,87,63,30.01,29.86,14,5,18,0.15
2013-5-5,74,62,51,58,53,47,99,75,40,30.01,29.90,13,4,18,0.00
2013-5-6,76,65,53,54,50,45,92,63,35,30.02,29.93,11,4,15,0.00
2013-5-7,80,67,53,54,47,41,91,53,26,30.02,29.93,6,1,9,0.00
2013-5-8,82,68,50,58,51,46,90,60,30,30.00,29.91,7,1,8,0.00
2013-5-9,71,64,61,64,60,56,97,89,71,29.92,29.75,13,6,17,0.49
2013-5-10,61,52,45,60,49,44,97,91,83,29.98,29.75,11,4,16,0.03
2013-5-11,58,51,44,52,39,29,98,68,37,30.11,29.89,23,10,31,0.01
2013-5-12,59,47,36,34,31,26,84,56,31,30.18,30.09,16,6,23,0.00
2013-5-13,71,55,34,46,36,29,90,54,24,30.18,29.92,11,3,15,0.00
2013-5-14,95,74,54,63,54,43,76,53,20,29.92,29.59,18,10,22,0.00
2013-5-15,83,76,63,57,51,45,67,43,27,29.81,29.63,20,5,25,0.00
2013-5-16,87,72,56,58,50,43,85,51,22,29.91,29.80,11,3,17,0.00
2013-5-17,82,69,65,62,60,58,87,76,46,29.89,29.85,12,6,15,0.00
2013-5-18,84,78,66,64,62,60,81,60,47,29.91,29.84,12,7,17,0.00
2013-5-19,91,75,62,70,65,59,94,73,47,29.86,29.61,25,10,34,0.09
2013-5-20,84,72,63,67,63,60,97,76,46,29.72,29.50,22,11,26,0.23
2013-5-21,80,70,62,65,60,57,95,73,49,29.66,29.58,19,10,24,0.00
2013-5-22,71,64,60,59,57,54,93,78,56,29.75,29.58,14,6,20,0.01
2013-5-23,68,59,48,56,51,44,97,78,47,30.25,29.75,14,4,20,0.06
2013-5-24,69,56,40,46,40,36,92,59,31,30.43,30.25,13,3,15,0.00
2013-5-25,57,51,48,50,46,41,94,83,61,30.38,30.23,14,6,18,0.58
2013-5-26,59,54,49,58,51,46,99,93,86,30.25,30.01,17,7,20,3.78
2013-5-27,71,64,56,67,62,56,99,95,85,30.02,29.75,14,6,18,0.22
2013-5-28,78,70,64,74,66,62,96,90,82,29.81,29.61,27,10,35,0.19
2013-5-29,84,74,63,74,67,60,93,81,63,29.86,29.67,26,9,32,0.09
2013-5-30,84,72,63,74,67,61,98,84,65,29.82,29.64,30,13,41,0.51
2013-5-31,65,64,63,63,62,61,96,94,94,29.76,29.72,12,6,15,0.11
2013-6-1,77,69,63,68,63,59,94,81,59,29.75,29.62,15,9,22,0.00
2013-6-2,63,59,51,60,52,47,93,79,61,30.02,29.74,12,4,16,0.00
2013-6-3,70,60,48,52,49,46,97,71,46,30.11,29.99,9,3,13,0.00
2013-6-4,74,64,52,57,52,48,89,66,45,30.12,29.99,17,5,23,0.00
2013-6-5,68,62,58,62,57,52,95,84,73,30.04,29.88,9,3,12,0.13
2013-6-6,68,60,56,61,57,54,97,89,75,29.90,29.85,5,1,7,0.43
2013-6-7,73,68,60,58,56,53,89,67,53,29.94,29.87,8,2,12,0.43
2013-6-8,77,67,54,60,54,50,91,67,46,29.94,29.87,11,3,14,0.00
2013-6-9,78,67,60,66,61,54,96,80,61,29.90,29.73,15,7,20,0.13
2013-6-10,77,68,60,67,63,59,98,85,64,29.85,29.71,9,2,12,0.00
2013-6-11,88,75,61,73,66,59,96,77,53,29.89,29.75,11,3,13,0.00
2013-6-12,94,80,67,76,72,65,96,76,50,29.83,29.53,21,7,26,0.07
2013-6-13,82,73,64,68,61,57,95,69,44,29.97,29.62,13,4,16,0.07
2013-6-14,80,70,58,62,58,55,91,67,44,30.10,29.91,10,3,14,0.00
2013-6-15,83,73,66,72,66,61,93,80,61,29.98,29.80,16,5,24,0.01
2013-6-16,87,75,65,70,65,62,95,74,46,29.91,29.85,7,3,14,0.00
2013-6-17,89,77,62,68,62,54,97,65,32,29.91,29.82,9,3,14,0.00
2013-6-18,80,71,60,65,59,54,87,68,50,30.01,29.84,13,6,17,0.00
2013-6-19,85,71,55,62,57,49,86,63,39,30.09,29.99,7,2,12,0.00
2013-6-20,92,78,62,65,62,56,83,59,36,30.07,29.96,12,5,17,0.00
2013-6-21,84,75,66,74,68,64,98,78,67,30.10,29.87,17,8,25,0.75
2013-6-22,90,78,69,80,72,66,94,83,70,30.03,29.86,15,8,23,0.05
2013-6-23,88,75,67,75,69,65,94,80,62,29.97,29.82,13,5,18,0.00
2013-6-24,84,71,65,76,68,63,99,92,69,30.09,29.84,20,4,45,5.06
2013-6-25,87,77,67,79,73,66,97,87,70,29.88,29.73,13,5,17,0.06
2013-6-26,86,77,68,77,72,66,96,86,70,29.75,29.66,12,3,17,0.29
2013-6-27,87,78,71,76,71,63,98,81,61,29.80,29.71,13,4,18,0.00
2013-6-28,82,74,66,67,64,62,88,71,53,29.75,29.62,13,5,20,0.00
2013-6-29,72,67,63,68,64,61,98,91,80,29.78,29.59,9,3,17,0.59
2013-6-30,78,70,63,67,62,56,95,77,60,29.98,29.78,8,4,15,0.00
2013-7-1,78,68,59,60,55,51,87,65,44,30.05,29.97,12,4,17,0.00
2013-7-2,78,68,55,62,56,52,92,69,50,30.07,29.99,10,3,16,0.00
2013-7-3,79,65,51,62,56,50,98,74,45,30.06,29.99,3,1,7,0.00
2013-7-4,87,73,58,69,63,55,92,73,47,30.04,29.96,5,1,9,0.00
2013-7-5,87,72,62,70,65,60,96,80,52,30.03,29.98,6,2,9,0.00
2013-7-6,90,82,69,73,69,66,93,68,50,29.96,29.90,5,2,10,0.00
2013-7-7,91,79,67,77,71,65,95,77,55,29.95,29.88,8,2,12,0.00
2013-7-8,88,79,71,78,73,69,94,84,70,29.95,29.90,9,4,15,0.30
2013-7-9,88,79,74,81,76,73,96,89,76,29.96,29.82,10,2,13,0.49
2013-7-10,80,71,62,65,62,60,95,75,55,29.98,29.90,10,2,12,0.00
2013-7-11,81,72,61,67,62,58,98,73,49,30.07,29.98,7,1,11,0.00
2013-7-12,87,72,55,70,61,54,98,73,44,30.12,30.02,4,1,7,0.00
2013-7-13,85,72,56,70,63,54,95,76,51,30.11,30.03,5,1,10,0.00
2013-7-14,91,77,61,75,69,60,97,79,54,30.14,30.08,4,1,8,0.00
2013-7-15,92,80,69,80,74,67,97,82,61,30.20,30.13,6,1,10,0.00
2013-7-16,94,82,70,82,76,69,99,83,59,30.25,30.18,4,1,7,0.00
2013-7-17,96,83,71,81,76,70,97,80,55,30.26,30.13,3,1,5,0.00
2013-7-18,93,84,72,81,76,71,98,80,59,30.15,29.91,6,2,9,0.00
2013-7-19,93,84,74,79,74,67,92,74,57,29.86,29.73,9,4,14,0.00
2013-7-20,89,78,66,74,68,63,94,73,50,29.89,29.79,5,1,9,0.00
2013-7-21,86,74,63,76,69,62,98,85,64,29.90,29.79,5,1,9,0.00
2013-7-22,89,76,63,78,70,62,99,84,60,29.84,29.68,17,2,22,0.59
2013-7-23,78,70,63,68,63,58,97,81,59,29.94,29.69,8,2,12,0.01
2013-7-24,78,65,53,64,58,52,98,78,50,30.05,29.94,6,1,10,0.00
2013-7-25,83,69,54,68,61,53,97,79,56,30.07,29.98,5,1,15,0.00
2013-7-26,79,68,58,73,64,56,96,86,60,30.01,29.86,11,3,14,0.61
2013-7-27,66,60,54,57,53,49,95,79,58,29.96,29.90,9,2,15,0.01
2013-7-28,72,62,52,59,53,49,94,76,54,30.03,29.89,6,1,12,0.00
2013-7-29,79,64,48,64,56,47,99,78,49,30.13,30.03,2,0,13,0.00
2013-7-30,68,65,61,66,63,57,98,93,83,30.12,30.00,6,1,10,0.26
2013-7-31,79,70,65,71,66,63,99,90,69,30.03,29.93,4,1,7,0.02
2013-8-1,84,71,58,68,63,57,99,79,48,30.01,29.88,7,1,12,0.01
2013-8-2,84,74,67,74,68,64,94,81,62,29.93,29.82,10,3,16,0.44
2013-8-3,80,70,60,65,61,57,97,75,47,30.11,29.93,5,1,8,0.00
2013-8-4,82,68,54,66,59,53,98,74,42,30.17,30.06,4,0,7,0.00
2013-8-5,74,65,58,69,63,56,99,93,82,30.06,29.83,13,2,20,1.15
2013-8-6,86,75,65,78,72,64,99,91,76,29.86,29.77,7,2,12,0.00
2013-8-7,86,77,64,76,71,62,98,83,60,29.92,29.74,7,2,10,0.00
2013-8-8,81,71,60,70,65,59,98,84,63,29.98,29.91,6,1,9,0.00
2013-8-9,81,71,60,72,66,59,98,86,69,30.06,29.95,5,1,8,0.00
2013-8-10,80,68,57,64,60,56,98,76,50,30.13,30.04,7,1,10,0.00
2013-8-11,82,70,57,70,64,55,96,82,63,30.11,29.98,7,1,12,0.00
2013-8-12,82,73,64,72,66,60,94,81,61,30.00,29.86,6,2,10,0.00
2013-8-13,75,64,49,60,55,48,98,75,49,30.15,29.93,7,1,14,0.00
2013-8-14,80,62,49,60,53,48,99,76,39,30.21,30.11,4,0,7,0.00
2013-8-15,78,64,53,63,56,50,94,77,47,30.15,30.08,3,0,5,0.00
2013-8-16,82,66,49,64,57,49,99,76,45,30.16,30.11,4,0,9,0.00
2013-8-17,81,66,52,64,58,51,98,78,47,30.20,30.11,6,1,9,0.00
2013-8-18,83,67,50,69,59,49,99,78,46,30.19,30.06,5,0,7,0.00
2013-8-19,84,71,57,71,64,56,96,82,59,30.09,29.98,5,1,9,0.00
2013-8-20,87,74,64,72,67,62,96,80,56,30.06,29.97,6,1,12,0.00
2013-8-21,88,77,67,74,69,65,94,79,58,30.03,29.93,9,3,12,0.00
2013-8-22,78,73,63,72,68,62,97,86,76,30.09,29.96,14,2,18,0.00
2013-8-23,84,71,60,71,64,59,99,82,49,30.13,30.06,9,2,12,0.00
2013-8-24,88,73,58,73,66,56,95,79,59,30.20,30.10,5,2,9,0.00
2013-8-25,90,77,68,75,69,65,94,77,53,30.19,30.08,7,3,13,0.00
2013-8-26,91,78,64,78,71,62,95,80,58,30.11,29.94,7,2,9,0.00
2013-8-27,94,82,71,78,73,68,95,76,52,29.96,29.81,12,4,17,0.00
2013-8-28,96,82,70,80,73,66,93,77,59,29.96,29.84,8,2,12,0.00
2013-8-29,87,76,68,76,72,67,98,86,65,30.03,29.92,7,2,9,0.00
2013-8-30,98,82,71,80,74,68,98,78,47,29.92,29.71,14,3,22,0.00
2013-8-31,83,76,69,74,70,66,95,84,70,29.78,29.72,7,2,10,0.00
2013-9-1,90,74,61,76,67,60,100,80,51,29.83,29.70,8,2,15,0.00
2013-9-2,79,68,57,65,59,54,97,76,47,29.99,29.83,8,2,12,0.00
2013-9-3,80,63,48,62,56,47,99,79,47,30.07,29.98,5,1,8,0.00
2013-9-4,87,68,49,68,59,48,99,76,43,30.12,30.02,6,1,12,0.00
2013-9-5,89,73,61,72,64,59,93,76,50,30.16,30.08,10,2,13,0.00
2013-9-6,89,72,56,68,62,53,92,72,44,30.16,29.96,7,2,12,0.00
2013-9-7,93,77,63,74,68,60,93,75,51,29.97,29.82,8,3,13,0.00
2013-9-8,87,77,71,73,70,67,93,80,61,29.95,29.84,11,5,15,0.00
2013-9-9,99,82,69,76,72,67,98,74,43,29.87,29.76,7,3,12,0.00
2013-9-10,97,82,68,71,67,63,85,63,35,29.96,29.84,13,4,16,0.00
2013-9-11,77,74,72,67,66,66,82,75,70,30.00,29.94,7,3,10,0.00
2013-9-14,76,65,53,48,47,44,80,55,33,30.07,29.98,6,2,10,0.00
2013-9-15,63,59,53,60,54,47,95,86,63,30.17,29.93,6,2,10,0.48
2013-9-16,71,59,51,55,51,47,96,79,44,30.35,30.17,8,3,13,0.00
2013-9-17,71,60,44,59,53,43,97,80,63,30.30,30.04,9,3,14,0.00
2013-9-18,85,72,61,73,66,57,95,81,65,30.05,29.82,12,5,16,0.35
2013-9-19,93,79,67,72,69,65,96,74,46,29.86,29.68,15,8,26,0.42
2013-9-20,71,65,54,66,59,52,97,81,51,29.87,29.75,10,4,15,0.51
2013-9-21,70,58,48,53,50,46,95,76,48,29.93,29.85,8,3,15,0.00
2013-9-22,73,57,42,52,48,41,98,74,40,30.05,29.93,6,2,10,0.00
2013-9-23,75,60,45,53,49,43,94,72,42,30.06,29.94,11,4,18,0.00
2013-9-24,77,61,45,55,51,44,96,73,45,29.97,29.85,13,4,18,0.00
2013-9-25,80,63,51,56,53,49,96,72,41,29.93,29.85,8,3,12,0.00
2013-9-26,78,59,49,61,53,48,97,82,53,30.00,29.91,10,3,13,0.00
2013-9-27,85,67,52,60,52,48,89,63,32,30.08,29.96,14,4,20,0.00
2013-9-28,83,66,54,68,59,53,95,79,52,29.98,29.84,21,7,26,0.02
2013-9-29,74,58,45,58,47,42,99,72,32,30.07,29.96,6,1,12,0.02
2013-9-30,79,61,41,57,49,40,97,68,35,29.98,29.81,11,4,16,0.00
2013-10-1,85,69,55,66,61,53,97,77,46,29.93,29.83,15,6,20,0.00
2013-10-2,85,70,58,67,60,51,97,74,40,30.03,29.89,13,4,16,0.00
2013-10-3,83,72,66,72,67,62,97,86,64,29.90,29.76,12,5,16,0.08
2013-10-4,77,71,65,72,68,63,98,88,72,29.93,29.80,13,4,17,0.59
2013-10-5,77,69,54,71,64,47,96,83,70,29.85,29.74,13,6,17,0.00
2013-10-6,55,48,42,45,42,39,95,82,60,29.81,29.72,12,5,16,0.02
2013-10-7,72,56,42,51,46,40,97,73,39,30.06,29.80,15,4,20,0.00
2013-10-8,79,60,44,52,47,42,94,67,31,30.15,30.06,12,3,15,0.00
2013-10-9,76,58,42,52,46,41,96,69,32,30.18,30.08,10,3,14,0.00
2013-10-10,78,59,40,58,50,39,97,76,44,30.14,29.98,10,2,13,0.00
2013-10-11,79,66,54,61,56,52,95,73,45,30.00,29.83,16,6,22,0.00
2013-10-12,72,62,42,60,50,39,89,67,35,30.19,29.85,13,5,18,0.00
2013-10-13,67,51,38,46,37,33,90,64,30,30.40,30.19,9,1,13,0.00
2013-10-14,66,48,31,46,38,30,96,72,38,30.39,30.05,14,4,18,0.00
2013-10-15,69,58,47,62,50,41,95,77,54,30.04,29.76,17,8,22,0.15
2013-10-16,52,50,48,46,45,43,93,82,76,29.97,29.86,13,7,18,0.00
2013-10-17,61,50,41,47,42,36,95,76,40,29.94,29.82,12,4,16,0.05
2013-10-18,50,46,41,42,39,36,95,78,65,29.99,29.84,11,6,14,0.00
2013-10-19,55,46,35,40,36,32,89,71,45,29.95,29.79,18,6,23,0.00
2013-10-20,66,51,37,47,42,33,93,73,45,29.85,29.69,13,4,17,0.00
2013-10-21,54,42,31,44,31,24,82,66,42,30.00,29.81,15,6,21,0.00
2013-10-22,36,32,25,34,30,22,97,93,81,30.01,29.90,6,2,10,0.39
2013-10-23,42,37,28,36,32,26,95,83,62,30.08,29.99,9,4,13,0.15
2013-10-24,40,35,27,35,26,23,90,71,55,30.36,30.07,9,5,13,0.00
2013-10-25,54,39,23,36,27,21,94,67,36,30.43,30.06,16,6,22,0.00
2013-10-26,54,45,34,37,32,27,81,60,39,30.12,29.90,15,8,20,0.00
2013-10-27,57,40,26,35,30,24,93,69,38,30.09,29.95,12,3,16,0.00
2013-10-28,61,44,30,43,36,27,92,73,44,30.34,30.03,13,4,20,0.00
2013-10-29,60,46,34,49,39,32,95,79,50,30.32,30.09,11,5,14,0.00
2013-10-30,61,55,52,60,54,49,98,97,92,30.09,29.73,16,5,20,1.59
2013-10-31,63,55,44,62,54,42,98,95,90,29.73,29.31,14,8,20,0.33
2013-11-1,49,46,42,45,43,40,95,90,83,29.78,29.46,12,6,14,0.01
2013-11-2,52,41,31,42,36,28,97,82,59,30.16,29.77,11,4,16,0.01
2013-11-3,54,40,25,40,33,24,96,79,50,30.28,30.15,13,5,17,0.00
2013-11-4,58,50,43,46,42,37,81,73,57,30.17,30.03,21,10,24,0.00
2013-11-5,55,53,50,53,50,46,96,90,79,30.20,29.85,18,9,24,0.09
2013-11-6,56,45,31,56,41,27,98,87,68,30.23,29.74,18,9,25,0.12
2013-11-7,43,34,26,37,30,24,92,85,72,30.30,30.23,14,4,20,0.00
2013-11-8,50,40,26,38,32,24,93,73,53,30.33,29.85,21,8,28,0.00
2013-11-9,60,50,39,43,39,35,85,68,51,30.20,29.85,20,11,26,0.00
2013-11-10,49,40,30,34,32,27,88,72,52,30.40,30.20,13,5,17,0.00
2013-11-11,48,38,23,38,31,17,95,76,63,30.60,30.08,16,8,18,0.05
2013-11-12,31,21,16,23,16,12,88,82,64,30.78,30.60,9,3,12,0.00
2013-11-13,44,32,16,23,19,13,89,62,38,30.65,30.16,18,10,23,0.00
2013-11-14,53,41,32,31,26,20,71,56,40,30.16,29.92,16,10,20,0.00
2013-11-15,55,43,35,37,32,26,89,66,46,29.97,29.85,13,8,17,0.00
2013-11-16,61,52,39,57,50,36,92,90,84,29.86,29.49,25,14,34,0.00
2013-11-17,68,54,42,64,51,39,99,89,79,29.84,29.12,24,13,30,0.44
2013-11-18,45,38,27,38,32,23,88,78,61,30.30,29.83,22,10,29,0.00
2013-11-19,45,33,21,32,27,19,95,81,57,30.37,30.21,11,5,13,0.00
2013-11-20,41,37,32,38,33,29,95,87,72,30.23,30.03,17,8,20,0.34
2013-11-21,46,42,40,43,40,38,96,93,88,30.26,30.06,9,3,12,0.01
2013-11-22,40,31,21,39,29,19,95,92,87,30.53,30.26,11,6,15,0.04
2013-11-23,24,20,9,19,12,5,93,73,52,30.79,30.51,16,7,20,0.00
2013-11-24,24,17,7,13,10,4,89,76,59,30.79,30.38,11,4,13,0.00
2013-11-25,34,29,18,28,22,13,86,76,62,30.38,30.11,15,8,20,0.00
2013-11-26,33,27,15,27,20,8,91,75,58,30.28,30.08,15,7,20,0.00
2013-11-27,29,18,11,14,10,6,84,71,50,30.36,30.24,9,4,16,0.00
2013-11-28,35,25,14,21,17,12,91,71,54,30.54,30.16,10,5,13,0.00
2013-11-29,37,24,10,25,18,8,93,77,51,30.64,30.36,11,4,14,0.00
2013-11-30,52,36,26,36,29,23,92,77,54,30.37,30.04,16,6,20,0.00
2013-12-1,46,36,27,33,30,25,95,80,60,30.14,29.96,7,2,9,0.00
2013-12-2,45,37,32,37,34,29,96,87,72,29.96,29.67,13,6,20,0.03
2013-12-3,48,42,34,48,41,33,99,98,95,29.68,29.59,10,5,12,0.01
2013-12-4,52,44,28,52,44,26,99,97,89,29.80,29.47,21,7,30,0.01
2013-12-5,28,21,14,26,15,9,90,79,70,30.38,29.80,18,11,23,0.00
2013-12-6,19,14,9,12,7,4,82,75,60,30.64,30.33,11,6,14,0.00
2013-12-7,18,10,3,7,3,-1,86,75,53,30.79,30.62,7,3,10,0.00
2013-12-8,22,19,12,20,15,6,95,86,73,30.63,30.02,12,3,16,0.00
2013-12-9,22,9,-9,20,5,-13,94,82,71,30.30,30.02,16,8,20,0.00
2013-12-10,21,13,-6,14,7,-10,86,75,65,30.34,30.06,24,9,29,0.00
2013-12-11,18,9,-6,15,4,-11,92,79,64,30.66,30.30,14,5,20,0.00
2013-12-12,23,11,-5,16,6,-10,90,79,71,30.63,30.25,14,6,20,0.00
2013-12-13,30,21,9,26,18,6,96,88,78,30.25,30.06,13,3,17,0.00
2013-12-14,29,24,15,27,22,12,96,92,85,30.08,29.98,14,7,19,0.00
2013-12-15,17,13,10,13,8,5,90,81,73,30.17,30.06,17,6,20,0.00
2013-12-16,21,16,12,19,13,10,94,89,83,30.16,30.04,8,4,12,0.00
2013-12-17,34,26,16,28,21,15,94,84,72,30.20,30.05,21,11,26,0.02
2013-12-18,37,26,12,30,20,8,89,79,59,30.20,29.82,15,6,20,0.00
2013-12-19,38,34,27,34,31,24,97,91,84,29.90,29.76,11,4,14,0.09
2013-12-20,34,30,28,33,29,27,98,96,95,29.86,29.74,11,4,14,0.10
2013-12-21,28,27,27,27,26,25,97,95,93,29.89,29.77,8,2,9,0.00
2013-12-22,28,24,18,26,22,15,97,91,88,30.23,29.79,11,7,15,0.00
2013-12-23,18,3,-6,15,-1,-10,90,82,76,30.58,30.23,14,7,16,0.00
2013-12-24,19,3,-12,14,-2,-16,88,81,67,30.65,30.34,13,5,17,0.00
2013-12-25,27,24,19,25,20,14,92,87,78,30.34,30.16,18,10,23,0.00
2013-12-26,35,25,12,31,21,9,95,87,78,30.30,30.14,17,7,21,0.03
2013-12-27,38,30,17,33,26,15,96,87,78,30.31,30.11,18,7,23,0.14
2013-12-28,43,37,30,36,32,27,94,83,75,30.12,29.80,16,9,20,0.00
2013-12-29,36,21,0,31,17,-5,95,84,76,30.32,29.79,16,10,21,0.00
2013-12-30,11,4,-3,7,-1,-8,89,79,61,30.39,30.25,6,2,12,0.00
2013-12-31,16,7,-6,12,4,-10,90,86,73,30.42,30.26,15,4,18,0.00
2014-1-1,14,12,9,12,9,6,91,88,84,30.30,30.23,15,10,20,0.00
2014-1-2,14,8,-4,8,4,-7,89,81,74,30.50,30.25,12,6,17,0.00